SKP1405 YPDN-WAMM

Flight info

Callsign SKP1405
Flight time 2h 24m
Altitude 38000
Route OCTOB DCT BUTPA A461 AMN W55 RUMBO
Aircraft A320/M-SDE3FGHIRWY/LB1

Departure

Time 2026-04-29 20:14
Airport Darwin International Airport / RAAF Darwin (YPDN)

Arrival

Time 2026-04-29 22:39
Airport Sam Ratulangi International Airport (WAMM)
Time Latitude Longitude Altitude Speed Heading
2026-04-29 19:45 -12.40942 130.87943 90 ft 0 kts 19°
2026-04-29 20:04 -12.40944 130.87942 90 ft 3 kts 19°
2026-04-29 20:04 -12.40970 130.87934 89 ft 4 kts
2026-04-29 20:04 -12.40996 130.87934 89 ft 4 kts 340°
2026-04-29 20:04 -12.41012 130.87946 89 ft 1 kts 289°
2026-04-29 20:08 -12.41010 130.87940 92 ft 3 kts 289°
2026-04-29 20:08 -12.41004 130.87922 90 ft 6 kts 289°
2026-04-29 20:08 -12.40977 130.87825 91 ft 16 kts 281°
2026-04-29 20:08 -12.40954 130.87700 92 ft 19 kts 279°
2026-04-29 20:09 -12.40997 130.87604 91 ft 13 kts 210°
2026-04-29 20:09 -12.41077 130.87574 90 ft 9 kts 199°
2026-04-29 20:09 -12.41135 130.87553 90 ft 9 kts 199°
2026-04-29 20:09 -12.41146 130.87549 90 ft 0 kts 199°
2026-04-29 20:10 -12.41152 130.87547 90 ft 4 kts 199°
2026-04-29 20:11 -12.41208 130.87526 90 ft 13 kts 199°
2026-04-29 20:11 -12.41240 130.87425 90 ft 21 kts 289°
2026-04-29 20:11 -12.41188 130.87265 90 ft 28 kts 289°
2026-04-29 20:11 -12.41112 130.87047 92 ft 37 kts 289°
2026-04-29 20:12 -12.41028 130.86801 91 ft 37 kts 289°
2026-04-29 20:12 -12.40964 130.86605 92 ft 19 kts 289°
2026-04-29 20:12 -12.40965 130.86545 91 ft 5 kts 160°
2026-04-29 20:12 -12.40964 130.86604 92 ft 10 kts 96°
2026-04-29 20:13 -12.40968 130.86619 93 ft 0 kts 109°
2026-04-29 20:13 -12.40976 130.86640 92 ft 14 kts 109°
2026-04-29 20:13 -12.41084 130.86962 92 ft 89 kts 109°
2026-04-29 20:14 -12.41365 130.87792 105 ft 154 kts 109°
2026-04-29 20:14 -12.41729 130.88850 813 ft 157 kts 108°
2026-04-29 20:14 -12.42073 130.89904 1606 ft 162 kts 108°
2026-04-29 20:14 -12.42463 130.91069 2167 ft 186 kts 109°
2026-04-29 20:15 -12.42909 130.92401 2773 ft 210 kts 108°
2026-04-29 20:15 -12.43409 130.93895 3444 ft 235 kts 109°
2026-04-29 20:15 -12.43966 130.95559 3921 ft 256 kts 109°
2026-04-29 20:15 -12.44552 130.97308 4924 ft 260 kts 109°
2026-04-29 20:16 -12.45019 130.99125 5537 ft 266 kts 94°
2026-04-29 20:16 -12.44788 131.00986 5909 ft 267 kts 71°
2026-04-29 20:16 -12.43837 131.02618 6280 ft 270 kts 49°
2026-04-29 20:16 -12.42316 131.03757 6638 ft 276 kts 26°
2026-04-29 20:17 -12.40438 131.04196 6878 ft 281 kts
2026-04-29 20:17 -12.38474 131.04159 7115 ft 283 kts
2026-04-29 20:17 -12.36506 131.04106 7353 ft 283 kts
2026-04-29 20:17 -12.34557 131.04058 7588 ft 284 kts
2026-04-29 20:18 -12.32596 131.03769 7829 ft 287 kts 345°
2026-04-29 20:18 -12.30757 131.02937 7973 ft 291 kts 329°
2026-04-29 20:18 -12.29200 131.01609 8006 ft 293 kts 313°
2026-04-29 20:18 -12.28016 130.99912 8016 ft 296 kts 298°
2026-04-29 20:19 -12.27262 130.97917 8677 ft 304 kts 288°
2026-04-29 20:19 -12.26587 130.95867 9896 ft 303 kts 290°
2026-04-29 20:19 -12.25878 130.93783 10526 ft 322 kts 290°
2026-04-29 20:19 -12.25127 130.91599 11141 ft 335 kts 289°
2026-04-29 20:20 -12.24345 130.89323 11878 ft 344 kts 289°
2026-04-29 20:20 -12.23338 130.87075 12679 ft 351 kts 301°
2026-04-29 20:20 -12.21813 130.85104 13472 ft 357 kts 315°
2026-04-29 20:20 -12.19827 130.83553 14173 ft 363 kts 330°
2026-04-29 20:21 -12.17493 130.82545 14876 ft 366 kts 343°
2026-04-29 20:21 -12.15054 130.81765 15612 ft 369 kts 343°
2026-04-29 20:21 -12.12587 130.80974 16303 ft 374 kts 343°
2026-04-29 20:21 -12.10090 130.80170 17015 ft 377 kts 343°
2026-04-29 20:22 -12.07576 130.79358 17723 ft 381 kts 343°
2026-04-29 20:22 -12.05065 130.78545 18371 ft 385 kts 343°
2026-04-29 20:22 -12.02465 130.77702 18993 ft 388 kts 342°
2026-04-29 20:22 -11.99894 130.76867 19571 ft 393 kts 342°
2026-04-29 20:23 -11.97273 130.76019 20179 ft 396 kts 342°
2026-04-29 20:23 -11.94642 130.75169 20856 ft 397 kts 342°
2026-04-29 20:23 -11.92000 130.74314 21495 ft 399 kts 342°
2026-04-29 20:23 -11.89342 130.73452 22113 ft 402 kts 342°
2026-04-29 20:24 -11.86663 130.72584 22718 ft 406 kts 341°
2026-04-29 20:24 -11.83960 130.71709 23329 ft 409 kts 341°
2026-04-29 20:24 -11.81236 130.70829 23869 ft 412 kts 341°
2026-04-29 20:24 -11.78493 130.69945 24390 ft 415 kts 341°
2026-04-29 20:25 -11.75768 130.69068 24905 ft 417 kts 341°
2026-04-29 20:25 -11.72995 130.68175 25421 ft 419 kts 341°
2026-04-29 20:25 -11.70202 130.67273 25927 ft 421 kts 341°
2026-04-29 20:25 -11.67398 130.66365 26402 ft 424 kts 341°
2026-04-29 20:26 -11.64577 130.65449 26879 ft 427 kts 341°
2026-04-29 20:26 -11.61740 130.64529 27351 ft 429 kts 341°
2026-04-29 20:26 -11.58882 130.63606 27817 ft 431 kts 341°
2026-04-29 20:26 -11.56008 130.62682 28270 ft 434 kts 341°
2026-04-29 20:27 -11.53122 130.61752 28715 ft 436 kts 341°
2026-04-29 20:27 -11.51201 130.61134 29010 ft 437 kts 341°
2026-04-29 20:27 -11.47300 130.59877 29589 ft 441 kts 341°
2026-04-29 20:27 -11.44373 130.58932 30032 ft 443 kts 341°
2026-04-29 20:28 -11.41459 130.57991 30361 ft 445 kts 341°
2026-04-29 20:28 -11.38499 130.57038 30742 ft 447 kts 340°
2026-04-29 20:28 -11.35523 130.56083 31119 ft 448 kts 340°
2026-04-29 20:28 -11.32539 130.55123 31484 ft 450 kts 340°
2026-04-29 20:29 -11.29566 130.54169 32013 ft 447 kts 341°
2026-04-29 20:29 -11.26606 130.53219 32539 ft 444 kts 340°
2026-04-29 20:29 -11.23659 130.52272 33076 ft 442 kts 340°
2026-04-29 20:29 -11.20735 130.51331 33615 ft 440 kts 341°
2026-04-29 20:30 -11.17822 130.50392 34115 ft 438 kts 341°
2026-04-29 20:30 -11.14926 130.49461 34578 ft 435 kts 341°
2026-04-29 20:30 -11.12040 130.48531 35028 ft 433 kts 341°
2026-04-29 20:30 -11.09177 130.47607 35484 ft 430 kts 341°
2026-04-29 20:31 -11.06362 130.46699 35928 ft 428 kts 341°
2026-04-29 20:31 -11.03532 130.45793 36374 ft 425 kts 341°
2026-04-29 20:31 -11.00713 130.44891 36813 ft 423 kts 341°
2026-04-29 20:31 -10.97915 130.43997 37245 ft 420 kts 341°
2026-04-29 20:32 -10.95134 130.43105 37665 ft 418 kts 341°
2026-04-29 20:32 -10.92359 130.42214 37913 ft 418 kts 341°
2026-04-29 20:32 -10.86846 130.40446 37957 ft 413 kts 341°
2026-04-29 20:33 -10.81369 130.38684 37958 ft 412 kts 341°
2026-04-29 20:33 -10.75899 130.36921 37955 ft 412 kts 341°
2026-04-29 20:34 -10.70429 130.35163 37949 ft 412 kts 341°
2026-04-29 20:34 -10.64954 130.33412 37955 ft 412 kts 341°
2026-04-29 20:35 -10.59479 130.31664 37953 ft 413 kts 341°
2026-04-29 20:35 -10.54002 130.29910 37951 ft 413 kts 341°
2026-04-29 20:36 -10.48554 130.28162 37958 ft 413 kts 341°
2026-04-29 20:36 -10.43064 130.26408 37960 ft 413 kts 341°
2026-04-29 20:37 -10.37581 130.24653 37958 ft 413 kts 341°
2026-04-29 20:37 -10.32092 130.22900 37956 ft 413 kts 341°
2026-04-29 20:38 -10.26603 130.21142 37956 ft 414 kts 341°
2026-04-29 20:38 -10.21114 130.19391 37957 ft 414 kts 341°
2026-04-29 20:39 -10.15616 130.17635 37954 ft 414 kts 341°
2026-04-29 20:39 -10.10108 130.15876 37961 ft 414 kts 342°
2026-04-29 20:40 -10.04646 130.14142 37952 ft 414 kts 342°
2026-04-29 20:40 -9.99145 130.12396 37957 ft 414 kts 342°
2026-04-29 20:41 -9.93647 130.10637 37957 ft 414 kts 341°
2026-04-29 20:41 -9.88152 130.08878 37957 ft 414 kts 342°
2026-04-29 20:42 -9.82659 130.07128 37952 ft 414 kts 342°
2026-04-29 20:42 -9.77167 130.05378 37952 ft 413 kts 342°
2026-04-29 20:43 -9.71706 130.03642 37954 ft 413 kts 342°
2026-04-29 20:43 -9.66217 130.01896 37952 ft 413 kts 342°
2026-04-29 20:44 -9.60728 130.00142 37948 ft 413 kts 342°
2026-04-29 20:44 -9.55245 129.98398 37952 ft 413 kts 343°
2026-04-29 20:45 -9.49767 129.96655 37957 ft 412 kts 342°
2026-04-29 20:45 -9.44291 129.94917 37952 ft 412 kts 342°
2026-04-29 20:46 -9.38817 129.93184 37952 ft 412 kts 342°
2026-04-29 20:46 -9.33352 129.91441 37948 ft 412 kts 342°
2026-04-29 20:47 -9.27917 129.89711 37947 ft 411 kts 343°
2026-04-29 20:47 -9.23342 129.88262 37950 ft 411 kts 343°
2026-04-29 20:48 -9.16989 129.86249 37947 ft 411 kts 343°
2026-04-29 20:48 -9.11528 129.84519 37949 ft 411 kts 343°
2026-04-29 20:49 -9.06068 129.82781 37943 ft 411 kts 343°
2026-04-29 20:49 -9.00600 129.81048 37951 ft 412 kts 343°
2026-04-29 20:50 -8.95135 129.79319 37950 ft 412 kts 343°
2026-04-29 20:50 -8.90587 129.77878 37948 ft 412 kts 343°
2026-04-29 20:51 -8.84225 129.75863 37945 ft 412 kts 343°
2026-04-29 20:51 -8.79643 129.74410 37952 ft 412 kts 343°
2026-04-29 20:52 -8.74204 129.72686 37958 ft 412 kts 343°
2026-04-29 20:52 -8.68732 129.70955 37952 ft 412 kts 343°
2026-04-29 20:53 -8.63250 129.69226 37949 ft 412 kts 343°
2026-04-29 20:53 -8.57778 129.67492 37947 ft 412 kts 343°
2026-04-29 20:54 -8.49559 129.64926 37949 ft 412 kts 344°
2026-04-29 20:55 -8.44060 129.63277 37944 ft 412 kts 344°
2026-04-29 20:55 -8.38567 129.61630 37943 ft 412 kts 344°
2026-04-29 20:56 -8.33113 129.59978 37944 ft 411 kts 344°
2026-04-29 20:56 -8.27624 129.58310 37938 ft 412 kts 344°
2026-04-29 20:57 -8.22128 129.56643 37937 ft 412 kts 344°
2026-04-29 20:57 -8.16640 129.54990 37939 ft 412 kts 344°
2026-04-29 20:58 -8.11144 129.53325 37939 ft 413 kts 344°
2026-04-29 20:58 -8.05668 129.51677 37946 ft 413 kts 344°
2026-04-29 20:59 -8.00155 129.50008 37950 ft 413 kts 344°
2026-04-29 20:59 -7.94636 129.48331 37949 ft 413 kts 344°
2026-04-29 21:00 -7.89132 129.46662 37947 ft 413 kts 344°
2026-04-29 21:00 -7.83622 129.45006 37942 ft 413 kts 344°
2026-04-29 21:01 -7.78109 129.43350 37941 ft 413 kts 344°
2026-04-29 21:01 -7.72626 129.41689 37940 ft 414 kts 344°
2026-04-29 21:02 -7.67111 129.40022 37943 ft 414 kts 344°
2026-04-29 21:02 -7.61594 129.38359 37944 ft 414 kts 344°
2026-04-29 21:03 -7.56070 129.36697 37938 ft 415 kts 344°
2026-04-29 21:03 -7.50535 129.35026 37940 ft 415 kts 344°
2026-04-29 21:04 -7.45005 129.33353 37944 ft 415 kts 344°
2026-04-29 21:04 -7.39502 129.31692 37945 ft 415 kts 344°
2026-04-29 21:05 -7.33956 129.30019 37942 ft 415 kts 344°
2026-04-29 21:05 -7.28418 129.28352 37942 ft 415 kts 344°
2026-04-29 21:06 -7.22887 129.26687 37945 ft 415 kts 344°
2026-04-29 21:06 -7.17353 129.25027 37943 ft 414 kts 344°
2026-04-29 21:07 -7.11865 129.23378 37934 ft 414 kts 344°
2026-04-29 21:07 -7.06344 129.21714 37932 ft 414 kts 344°
2026-04-29 21:08 -7.00829 129.20052 37930 ft 414 kts 344°
2026-04-29 21:08 -6.95315 129.18390 37929 ft 414 kts 344°
2026-04-29 21:09 -6.89789 129.16728 37930 ft 414 kts 344°
2026-04-29 21:09 -6.84273 129.15070 37930 ft 414 kts 344°
2026-04-29 21:10 -6.78740 129.13407 37932 ft 414 kts 344°
2026-04-29 21:10 -6.73356 129.11789 37932 ft 414 kts 344°
2026-04-29 21:11 -6.67821 129.10127 37935 ft 415 kts 344°
2026-04-29 21:11 -6.62290 129.08468 37936 ft 415 kts 344°
2026-04-29 21:12 -6.56751 129.06803 37933 ft 415 kts 344°
2026-04-29 21:12 -6.51206 129.05133 37937 ft 415 kts 344°
2026-04-29 21:13 -6.45659 129.03469 37942 ft 416 kts 344°
2026-04-29 21:13 -6.40111 129.01811 37944 ft 416 kts 344°
2026-04-29 21:14 -6.34564 129.00147 37943 ft 416 kts 344°
2026-04-29 21:14 -6.29019 128.98476 37942 ft 416 kts 344°
2026-04-29 21:15 -6.23474 128.96819 37942 ft 416 kts 344°
2026-04-29 21:15 -6.17928 128.95152 37944 ft 416 kts 344°
2026-04-29 21:16 -6.12372 128.93486 37949 ft 416 kts 344°
2026-04-29 21:16 -6.06856 128.91840 37947 ft 416 kts 344°
2026-04-29 21:17 -6.01309 128.90178 37950 ft 416 kts 344°
2026-04-29 21:17 -5.95764 128.88516 37952 ft 416 kts 343°
2026-04-29 21:18 -5.90219 128.86860 37944 ft 416 kts 343°
2026-04-29 21:18 -5.84670 128.85197 37943 ft 416 kts 343°
2026-04-29 21:19 -5.79116 128.83527 37942 ft 416 kts 343°
2026-04-29 21:19 -5.73563 128.81860 37941 ft 416 kts 343°
2026-04-29 21:20 -5.68031 128.80208 37937 ft 417 kts 343°
2026-04-29 21:20 -5.62477 128.78543 37946 ft 417 kts 343°
2026-04-29 21:21 -5.56913 128.76884 37953 ft 417 kts 343°
2026-04-29 21:21 -5.51349 128.75227 37946 ft 417 kts 343°
2026-04-29 21:22 -5.45822 128.73571 37943 ft 417 kts 343°
2026-04-29 21:22 -5.40262 128.71911 37946 ft 416 kts 343°
2026-04-29 21:23 -5.34706 128.70248 37937 ft 417 kts 344°
2026-04-29 21:23 -5.29140 128.68582 37931 ft 417 kts 344°
2026-04-29 21:24 -5.23573 128.66913 37934 ft 418 kts 344°
2026-04-29 21:24 -5.17994 128.65248 37930 ft 419 kts 344°
2026-04-29 21:25 -5.12411 128.63584 37925 ft 419 kts 343°
2026-04-29 21:25 -5.06812 128.61910 37928 ft 420 kts 344°
2026-04-29 21:26 -5.01254 128.60249 37932 ft 420 kts 343°
2026-04-29 21:26 -4.95651 128.58580 37936 ft 420 kts 344°
2026-04-29 21:27 -4.90964 128.57181 37934 ft 419 kts 344°
2026-04-29 21:27 -4.84463 128.55242 37934 ft 420 kts 344°
2026-04-29 21:28 -4.78866 128.53568 37937 ft 419 kts 343°
2026-04-29 21:28 -4.73273 128.51892 37930 ft 419 kts 344°
2026-04-29 21:29 -4.67678 128.50226 37928 ft 420 kts 344°
2026-04-29 21:29 -4.62070 128.48562 37930 ft 420 kts 344°
2026-04-29 21:30 -4.56462 128.46897 37932 ft 420 kts 345°
2026-04-29 21:30 -4.50899 128.45233 37934 ft 420 kts 345°
2026-04-29 21:31 -4.45292 128.43558 37926 ft 420 kts 345°
2026-04-29 21:31 -4.39676 128.41881 37923 ft 421 kts 345°
2026-04-29 21:32 -4.34047 128.40210 37921 ft 422 kts 345°
2026-04-29 21:32 -4.28408 128.38543 37921 ft 423 kts 344°
2026-04-29 21:33 -4.22772 128.36865 37926 ft 423 kts 344°
2026-04-29 21:33 -4.17128 128.35174 37927 ft 423 kts 344°
2026-04-29 21:34 -4.11525 128.33494 37928 ft 423 kts 344°
2026-04-29 21:34 -4.05880 128.31818 37924 ft 423 kts 344°
2026-04-29 21:35 -4.00242 128.30146 37923 ft 423 kts 344°
2026-04-29 21:35 -3.94603 128.28466 37902 ft 423 kts 345°
2026-04-29 21:36 -3.88959 128.26786 37895 ft 423 kts 345°
2026-04-29 21:36 -3.83313 128.25111 37878 ft 424 kts 345°
2026-04-29 21:37 -3.78614 128.23714 37876 ft 424 kts 345°
2026-04-29 21:37 -3.71994 128.21741 37876 ft 424 kts 345°
2026-04-29 21:38 -3.66331 128.20051 37876 ft 425 kts 345°
2026-04-29 21:38 -3.61671 128.18508 37877 ft 426 kts 336°
2026-04-29 21:39 -3.55747 128.14955 37876 ft 428 kts 328°
2026-04-29 21:39 -3.51535 128.12275 37889 ft 428 kts 329°
2026-04-29 21:40 -3.45688 128.08571 37896 ft 428 kts 329°
2026-04-29 21:40 -3.41495 128.05921 37896 ft 429 kts 329°
2026-04-29 21:41 -3.36450 128.02721 37912 ft 429 kts 328°
2026-04-29 21:41 -3.31416 127.99512 37905 ft 429 kts 328°
2026-04-29 21:42 -3.26378 127.96304 37898 ft 430 kts 329°
2026-04-29 21:42 -3.21320 127.93090 37905 ft 431 kts 329°
2026-04-29 21:43 -3.16292 127.89903 37905 ft 431 kts 329°
2026-04-29 21:43 -3.11224 127.86695 37913 ft 431 kts 329°
2026-04-29 21:44 -3.06163 127.83478 37923 ft 431 kts 329°
2026-04-29 21:44 -3.01094 127.80261 37933 ft 431 kts 329°
2026-04-29 21:45 -2.96021 127.77040 37913 ft 432 kts 329°
2026-04-29 21:45 -2.90933 127.73813 37913 ft 433 kts 329°
2026-04-29 21:46 -2.85842 127.70588 37912 ft 433 kts 329°
2026-04-29 21:46 -2.80747 127.67357 37913 ft 434 kts 329°
2026-04-29 21:47 -2.75647 127.64124 37927 ft 434 kts 329°
2026-04-29 21:47 -2.70547 127.60885 37914 ft 434 kts 329°
2026-04-29 21:48 -2.65435 127.57645 37919 ft 434 kts 329°
2026-04-29 21:48 -2.60361 127.54431 37923 ft 435 kts 329°
2026-04-29 21:49 -2.55251 127.51193 37921 ft 435 kts 329°
2026-04-29 21:49 -2.50136 127.47949 37920 ft 435 kts 329°
2026-04-29 21:50 -2.45022 127.44705 37925 ft 436 kts 329°
2026-04-29 21:50 -2.39902 127.41458 37929 ft 436 kts 329°
2026-04-29 21:51 -2.34773 127.38207 37923 ft 437 kts 329°
2026-04-29 21:51 -2.27076 127.33326 37922 ft 437 kts 329°
2026-04-29 21:52 -2.21938 127.30068 37927 ft 437 kts 329°
2026-04-29 21:52 -2.16824 127.26843 37927 ft 437 kts 329°
2026-04-29 21:53 -2.11668 127.23609 37934 ft 438 kts 329°
2026-04-29 21:53 -2.06471 127.20349 37922 ft 438 kts 329°
2026-04-29 21:54 -2.01349 127.17132 37925 ft 438 kts 329°
2026-04-29 21:54 -1.96195 127.13879 37922 ft 438 kts 329°
2026-04-29 21:55 -1.91044 127.10633 37920 ft 438 kts 329°
2026-04-29 21:55 -1.85889 127.07398 37918 ft 438 kts 329°
2026-04-29 21:56 -1.80737 127.04156 37916 ft 437 kts 329°
2026-04-29 21:56 -1.75583 127.00916 37920 ft 437 kts 329°
2026-04-29 21:57 -1.70427 126.97675 37917 ft 438 kts 329°
2026-04-29 21:57 -1.65276 126.94435 37924 ft 438 kts 329°
2026-04-29 21:58 -1.60120 126.91185 37924 ft 438 kts 329°
2026-04-29 21:58 -1.54964 126.87951 37926 ft 438 kts 329°
2026-04-29 21:59 -1.49806 126.84708 37930 ft 438 kts 329°
2026-04-29 21:59 -1.44650 126.81463 37928 ft 438 kts 329°
2026-04-29 22:00 -1.39489 126.78223 37927 ft 438 kts 329°
2026-04-29 22:00 -1.34328 126.74980 37929 ft 438 kts 329°
2026-04-29 22:01 -1.29176 126.71734 37930 ft 438 kts 329°
2026-04-29 22:01 -1.24019 126.68493 37924 ft 438 kts 329°
2026-04-29 22:02 -1.18891 126.65272 37919 ft 438 kts 329°
2026-04-29 22:02 -1.13730 126.62028 37912 ft 438 kts 329°
2026-04-29 22:03 -1.08570 126.58785 37921 ft 438 kts 329°
2026-04-29 22:03 -1.03401 126.55541 37924 ft 439 kts 329°
2026-04-29 22:04 -0.98226 126.52296 37916 ft 439 kts 329°
2026-04-29 22:04 -0.93052 126.49046 37922 ft 439 kts 329°
2026-04-29 22:05 -0.87888 126.45795 37927 ft 438 kts 329°
2026-04-29 22:06 -0.80297 126.40699 37933 ft 438 kts 326°
2026-04-29 22:06 -0.75298 126.37210 37901 ft 440 kts 326°
2026-04-29 22:06 -0.72772 126.35464 37647 ft 454 kts 327°
2026-04-29 22:07 -0.70149 126.33661 37386 ft 460 kts 327°
2026-04-29 22:07 -0.67507 126.31855 37130 ft 460 kts 327°
2026-04-29 22:07 -0.64824 126.30029 36873 ft 459 kts 327°
2026-04-29 22:07 -0.62187 126.28237 36624 ft 458 kts 327°
2026-04-29 22:08 -0.59591 126.26468 36381 ft 457 kts 327°
2026-04-29 22:08 -0.56964 126.24676 36138 ft 457 kts 327°
2026-04-29 22:08 -0.54343 126.22889 35893 ft 455 kts 327°
2026-04-29 22:08 -0.51728 126.21106 35654 ft 454 kts 327°
2026-04-29 22:09 -0.49122 126.19330 35419 ft 452 kts 327°
2026-04-29 22:09 -0.46524 126.17561 35182 ft 451 kts 327°
2026-04-29 22:09 -0.43939 126.15802 34947 ft 450 kts 327°
2026-04-29 22:09 -0.41357 126.14040 34720 ft 448 kts 327°
2026-04-29 22:10 -0.38785 126.12291 34496 ft 447 kts 327°
2026-04-29 22:10 -0.36222 126.10538 34270 ft 446 kts 327°
2026-04-29 22:10 -0.33667 126.08786 34046 ft 445 kts 327°
2026-04-29 22:10 -0.31121 126.07039 33817 ft 443 kts 327°
2026-04-29 22:11 -0.28581 126.05296 33554 ft 443 kts 327°
2026-04-29 22:11 -0.26039 126.03561 33292 ft 441 kts 327°
2026-04-29 22:11 -0.23505 126.01837 33047 ft 440 kts 327°
2026-04-29 22:11 -0.20982 126.00121 32796 ft 438 kts 327°
2026-04-29 22:12 -0.18500 125.98429 32554 ft 436 kts 327°
2026-04-29 22:12 -0.16000 125.96721 32309 ft 435 kts 327°
2026-04-29 22:12 -0.13510 125.95020 32064 ft 433 kts 327°
2026-04-29 22:12 -0.11031 125.93324 31823 ft 431 kts 327°
2026-04-29 22:13 -0.08560 125.91633 31587 ft 430 kts 327°
2026-04-29 22:13 -0.06095 125.89949 31349 ft 428 kts 327°
2026-04-29 22:13 -0.03678 125.88215 31115 ft 427 kts 324°
2026-04-29 22:13 -0.01329 125.86407 30884 ft 426 kts 323°
2026-04-29 22:14 0.00973 125.84557 30660 ft 424 kts 322°
2026-04-29 22:14 0.03249 125.82695 30428 ft 422 kts 321°
2026-04-29 22:14 0.05518 125.80839 30199 ft 420 kts 322°
2026-04-29 22:14 0.07785 125.79003 29970 ft 419 kts 322°
2026-04-29 22:15 0.10054 125.77185 29723 ft 417 kts 322°
2026-04-29 22:15 0.12319 125.75389 29450 ft 415 kts 322°
2026-04-29 22:15 0.14584 125.73602 29187 ft 413 kts 323°
2026-04-29 22:15 0.16831 125.71831 28903 ft 409 kts 322°
2026-04-29 22:16 0.19044 125.70082 28447 ft 404 kts 322°
2026-04-29 22:16 0.21240 125.68344 27994 ft 400 kts 322°
2026-04-29 22:16 0.23414 125.66622 27523 ft 397 kts 322°
2026-04-29 22:16 0.25538 125.64938 27059 ft 394 kts 322°
2026-04-29 22:17 0.27671 125.63244 26573 ft 391 kts 322°
2026-04-29 22:17 0.29798 125.61556 26083 ft 388 kts 322°
2026-04-29 22:17 0.31908 125.59885 25584 ft 387 kts 322°
2026-04-29 22:17 0.34015 125.58219 25068 ft 385 kts 322°
2026-04-29 22:18 0.36113 125.56560 24548 ft 384 kts 322°
2026-04-29 22:18 0.38207 125.54905 24015 ft 384 kts 322°
2026-04-29 22:18 0.40298 125.53248 23476 ft 383 kts 322°
2026-04-29 22:18 0.42388 125.51590 22880 ft 382 kts 322°
2026-04-29 22:19 0.44459 125.49946 22367 ft 379 kts 322°
2026-04-29 22:19 0.46517 125.48316 21850 ft 376 kts 322°
2026-04-29 22:19 0.48564 125.46697 21347 ft 374 kts 322°
2026-04-29 22:19 0.50595 125.45090 20844 ft 372 kts 322°
2026-04-29 22:20 0.52613 125.43492 20350 ft 370 kts 322°
2026-04-29 22:20 0.54624 125.41900 19855 ft 368 kts 322°
2026-04-29 22:20 0.56626 125.40316 19375 ft 366 kts 322°
2026-04-29 22:20 0.58618 125.38737 18891 ft 365 kts 322°
2026-04-29 22:21 0.60606 125.37160 18445 ft 363 kts 322°
2026-04-29 22:21 0.62581 125.35596 18016 ft 360 kts 322°
2026-04-29 22:21 0.64511 125.34069 17883 ft 347 kts 322°
2026-04-29 22:21 0.66390 125.32581 17907 ft 344 kts 322°
2026-04-29 22:22 0.68267 125.31094 17907 ft 344 kts 322°
2026-04-29 22:22 0.70114 125.29634 17881 ft 343 kts 322°
2026-04-29 22:22 0.71997 125.28148 17133 ft 345 kts 322°
2026-04-29 22:22 0.73856 125.26680 16521 ft 338 kts 322°
2026-04-29 22:23 0.75684 125.25233 15921 ft 332 kts 322°
2026-04-29 22:23 0.77491 125.23801 15331 ft 330 kts 322°
2026-04-29 22:23 0.79273 125.22389 14749 ft 326 kts 322°
2026-04-29 22:23 0.81040 125.20991 14178 ft 322 kts 322°
2026-04-29 22:24 0.82803 125.19596 13608 ft 326 kts 322°
2026-04-29 22:24 0.84593 125.18178 12981 ft 330 kts 322°
2026-04-29 22:24 0.86364 125.16775 12380 ft 333 kts 322°
2026-04-29 22:24 0.88217 125.15306 11750 ft 335 kts 322°
2026-04-29 22:25 0.90047 125.13854 11176 ft 335 kts 322°
2026-04-29 22:25 0.91845 125.12427 10924 ft 325 kts 322°
2026-04-29 22:25 0.93585 125.11050 10690 ft 314 kts 322°
2026-04-29 22:25 0.95274 125.09713 10460 ft 305 kts 322°
2026-04-29 22:26 0.96921 125.08407 10216 ft 300 kts 322°
2026-04-29 22:26 0.98551 125.07115 9874 ft 298 kts 323°
2026-04-29 22:26 1.00171 125.05832 9494 ft 296 kts 322°
2026-04-29 22:26 1.01778 125.04560 9127 ft 293 kts 323°
2026-04-29 22:27 1.03374 125.03298 8775 ft 292 kts 323°
2026-04-29 22:27 1.04960 125.02044 8420 ft 290 kts 322°
2026-04-29 22:27 1.06539 125.00795 8067 ft 288 kts 322°
2026-04-29 22:27 1.08106 124.99555 7715 ft 286 kts 322°
2026-04-29 22:28 1.09663 124.98323 7368 ft 285 kts 322°
2026-04-29 22:28 1.11318 124.97258 7014 ft 282 kts 335°
2026-04-29 22:28 1.13122 124.96573 6693 ft 280 kts 341°
2026-04-29 22:28 1.14954 124.95927 6349 ft 279 kts 341°
2026-04-29 22:29 1.16175 124.95494 6221 ft 270 kts 341°
2026-04-29 22:29 1.18432 124.94694 6089 ft 249 kts 341°
2026-04-29 22:29 1.20022 124.94128 5985 ft 236 kts 341°
2026-04-29 22:29 1.21529 124.93593 5894 ft 224 kts 342°
2026-04-29 22:30 1.22968 124.93090 5786 ft 214 kts 342°
2026-04-29 22:30 1.24345 124.92616 5656 ft 206 kts 342°
2026-04-29 22:30 1.25240 124.92313 5536 ft 203 kts 342°
2026-04-29 22:30 1.26546 124.91925 5481 ft 187 kts 348°
2026-04-29 22:31 1.27767 124.91784 5324 ft 169 kts
2026-04-29 22:31 1.28895 124.91859 5135 ft 156 kts
2026-04-29 22:31 1.29952 124.91867 4926 ft 147 kts
2026-04-29 22:31 1.30924 124.91888 4803 ft 133 kts
2026-04-29 22:32 1.31846 124.91913 4751 ft 132 kts
2026-04-29 22:32 1.32756 124.91927 4597 ft 130 kts
2026-04-29 22:32 1.33660 124.91947 4441 ft 129 kts
2026-04-29 22:32 1.34559 124.91964 4313 ft 129 kts
2026-04-29 22:33 1.35450 124.91971 4127 ft 128 kts
2026-04-29 22:33 1.36341 124.92000 3960 ft 127 kts
2026-04-29 22:33 1.37222 124.92025 3800 ft 126 kts
2026-04-29 22:33 1.38103 124.92052 3640 ft 127 kts
2026-04-29 22:34 1.38991 124.92073 3473 ft 127 kts
2026-04-29 22:34 1.39870 124.92105 3285 ft 126 kts
2026-04-29 22:34 1.40735 124.92130 3106 ft 125 kts
2026-04-29 22:34 1.41606 124.92147 2927 ft 125 kts
2026-04-29 22:35 1.42478 124.92181 2771 ft 125 kts
2026-04-29 22:35 1.43353 124.92233 2575 ft 126 kts
2026-04-29 22:35 1.44224 124.92274 2395 ft 125 kts
2026-04-29 22:35 1.45095 124.92296 2199 ft 126 kts
2026-04-29 22:36 1.45972 124.92313 2033 ft 126 kts
2026-04-29 22:36 1.46850 124.92339 1833 ft 127 kts
2026-04-29 22:36 1.47737 124.92371 1644 ft 127 kts
2026-04-29 22:36 1.48626 124.92398 1462 ft 128 kts
2026-04-29 22:37 1.49519 124.92432 1279 ft 128 kts
2026-04-29 22:37 1.50410 124.92467 1096 ft 128 kts
2026-04-29 22:37 1.51296 124.92510 908 ft 127 kts
2026-04-29 22:37 1.52178 124.92532 705 ft 127 kts
2026-04-29 22:38 1.53059 124.92569 535 ft 126 kts
2026-04-29 22:38 1.53939 124.92595 349 ft 124 kts
2026-04-29 22:38 1.54690 124.92625 334 ft 87 kts
2026-04-29 22:38 1.55172 124.92638 335 ft 61 kts
2026-04-29 22:39 1.55536 124.92651 334 ft 32 kts
2026-04-29 22:39 1.55654 124.92642 332 ft 14 kts 323°
2026-04-29 22:39 1.55668 124.92548 337 ft 14 kts 271°
2026-04-29 22:39 1.55605 124.92489 337 ft 16 kts 182°
2026-04-29 22:40 1.55474 124.92484 336 ft 22 kts 181°
2026-04-29 22:40 1.55306 124.92479 333 ft 27 kts 181°
2026-04-29 22:40 1.55102 124.92472 336 ft 32 kts 182°
2026-04-29 22:40 1.54867 124.92465 334 ft 36 kts 181°
2026-04-29 22:41 1.54671 124.92458 337 ft 21 kts 184°
2026-04-29 22:41 1.54513 124.92452 337 ft 19 kts 181°
2026-04-29 22:41 1.54469 124.92431 335 ft 6 kts 250°
2026-04-29 22:41 1.54469 124.92390 348 ft 6 kts 272°
2026-04-29 22:42 1.54470 124.92361 336 ft 1 kts 274°
2026-04-29 22:42 1.54470 124.92349 336 ft 1 kts 272°
2026-04-29 22:42 1.54470 124.92345 336 ft 0 kts 271°